| time (UTC) | temp C | wind direction | speed KPH | gust KPH | rain 1hr cm | rain 24hr cm | rain mn cm | humidity % | barometer mb |
| 20260901021510 | 22 | 275 | 11.3 | 32.2 | 0.00 | 0.03 | 0.03 | 48 | 1022.2 |
| 20260901021004 | 22 | 292 | 14.5 | 32.2 | 0.00 | 0.03 | 0.03 | 47 | 1022.4 |
| 20260901020503 | 22 | 277 | 8.0 | 27.4 | 0.00 | 0.03 | 0.03 | 49 | 1022.6 |
| 20260901020101 | 22 | 276 | 12.9 | 32.2 | 0.00 | 0.03 | 0.03 | 49 | 1022.7 |
| 20260901015558 | 22 | 284 | 14.5 | 32.2 | 0.00 | 0.03 | 0.03 | 49 | 1022.8 |
| 20260901015057 | 21 | 285 | 16.1 | 27.4 | 0.00 | 0.03 | 0.03 | 49 | 1023.0 |
| 20260901014559 | 22 | 251 | 12.9 | 24.1 | 0.00 | 0.03 | 0.03 | 50 | 1023.1 |
| 20260901014054 | 22 | 273 | 12.9 | 22.5 | 0.00 | 0.03 | 0.03 | 50 | 1023.3 |
| 20260901013553 | 22 | 289 | 8.0 | 24.1 | 0.00 | 0.03 | 0.03 | 53 | 1023.4 |
| 20260901013052 | 21 | 245 | 12.9 | 24.1 | 0.00 | 0.03 | 0.03 | 52 | 1023.6 |
| 20260901012554 | 21 | 281 | 8.0 | 19.3 | 0.00 | 0.03 | 0.03 | 52 | 1023.8 |
| 20260901012049 | 21 | 286 | 6.4 | 22.5 | 0.00 | 0.03 | 0.03 | 53 | 1023.9 |
| 20260901011547 | 21 | 263 | 9.7 | 22.5 | 0.00 | 0.03 | 0.03 | 53 | 1024.0 |
| 20260901011046 | 21 | 304 | 9.7 | 20.9 | 0.00 | 0.03 | 0.03 | 53 | 1024.1 |
| 20260901010545 | 21 | 215 | 9.7 | 24.1 | 0.00 | 0.03 | 0.03 | 53 | 1024.2 |
| 20260901010043 | 21 | 234 | 9.7 | 24.1 | 0.00 | 0.03 | 0.03 | 53 | 1024.3 |
| 20260901005542 | 20 | 307 | 8.0 | 20.9 | 0.00 | 0.03 | 0.03 | 54 | 1024.5 |
| 20260901005041 | 20 | 269 | 11.3 | 20.9 | 0.00 | 0.03 | 0.03 | 56 | 1024.6 |
| 20260901004539 | 20 | 293 | 11.3 | 20.9 | 0.00 | 0.03 | 0.03 | 58 | 1024.6 |
| 20260901004038 | 20 | 238 | 11.3 | 17.7 | 0.00 | 0.03 | 0.03 | 60 | 1024.7 |
| 20260901003537 | 19 | 282 | 6.4 | 17.7 | 0.00 | 0.03 | 0.03 | 61 | 1024.8 |
| 20260901003037 | 19 | 263 | 8.0 | 17.7 | 0.00 | 0.03 | 0.03 | 63 | 1024.9 |
| 20260901002537 | 18 | 281 | 6.4 | 19.3 | 0.00 | 0.03 | 0.03 | 63 | 1024.9 |
| 20260901002036 | 18 | 290 | 8.0 | 19.3 | 0.00 | 0.03 | 0.03 | 63 | 1025.0 |
| 20260901001532 | 18 | 282 | 4.8 | 16.1 | 0.00 | 0.03 | 0.03 | 64 | 1025.1 |
| 20260901001031 | 18 | 339 | 6.4 | 16.1 | 0.00 | 0.03 | 0.03 | 65 | 1025.1 |
| 20260901000529 | 18 | 277 | 4.8 | 14.5 | 0.00 | 0.03 | 0.03 | 66 | 1025.1 |
| 20260901000027 | 18 | 319 | 6.4 | 16.1 | 0.00 | 0.03 | 0.03 | 66 | 1025.2 |
| 20260831235527 | 17 | 318 | 9.7 | 16.1 | 0.00 | 0.03 | 0.03 | 67 | 1025.2 |
| 20260831235026 | 17 | 275 | 4.8 | 14.5 | 0.00 | 0.03 | 0.03 | 70 | 1025.3 |
| 20260831234523 | 17 | 250 | 4.8 | 16.1 | 0.00 | 0.03 | 0.03 | 71 | 1025.4 |
| 20260831234024 | 17 | 298 | 4.8 | 17.7 | 0.00 | 0.03 | 0.03 | 72 | 1025.4 |
| 20260831233521 | 16 | 277 | 6.4 | 14.5 | 0.00 | 0.03 | 0.03 | 75 | 1025.6 |
| 20260831233021 | 16 | 258 | 4.8 | 12.9 | 0.00 | 0.03 | 0.03 | 78 | 1025.6 |
| 20260831232520 | 15 | 316 | 4.8 | 12.9 | 0.00 | 0.03 | 0.03 | 78 | 1025.8 |
| 20260831232019 | 15 | 302 | 6.4 | 14.5 | 0.00 | 0.03 | 0.03 | 79 | 1025.9 |
| 20260831231516 | 15 | 321 | 4.8 | 9.7 | 0.00 | 0.03 | 0.03 | 80 | 1025.9 |
| 20260831231015 | 15 | 263 | 4.8 | 14.5 | 0.00 | 0.03 | 0.03 | 80 | 1026.0 |
| 20260831230514 | 14 | 278 | 6.4 | 14.5 | 0.00 | 0.03 | 0.03 | 81 | 1026.1 |
| 20260831230012 | 14 | 309 | 6.4 | 12.9 | 0.00 | 0.03 | 0.03 | 82 | 1026.2 |
| 20260831225512 | 14 | 299 | 4.8 | 16.1 | 0.00 | 0.03 | 0.03 | 82 | 1026.2 |
| 20260831225009 | 13 | 317 | 6.4 | 14.5 | 0.00 | 0.03 | 0.03 | 83 | 1026.3 |
| 20260831224508 | 13 | 283 | 8.0 | 12.9 | 0.00 | 0.03 | 0.03 | 83 | 1026.3 |
| 20260831224008 | 13 | 298 | 6.4 | 12.9 | 0.00 | 0.03 | 0.03 | 84 | 1026.4 |
| 20260831223506 | 13 | 259 | 3.2 | 9.7 | 0.00 | 0.03 | 0.03 | 86 | 1026.5 |
| 20260831223006 | 13 | 290 | 3.2 | 12.9 | 0.00 | 0.03 | 0.03 | 87 | 1026.5 |
| 20260831222507 | 12 | 309 | 4.8 | 12.9 | 0.00 | 0.03 | 0.03 | 88 | 1026.5 |
| 20260831222005 | 12 | 269 | 4.8 | 9.7 | 0.00 | 0.03 | 0.03 | 89 | 1026.5 |
| 20260831221508 | 12 | 329 | 4.8 | 9.7 | 0.00 | 0.03 | 0.03 | 90 | 1026.6 |
| 20260831221004 | 12 | 328 | 3.2 | 8.0 | 0.00 | 0.03 | 0.03 | 91 | 1026.6 |
| 20260831220504 | 11 | 319 | 4.8 | 8.0 | 0.00 | 0.03 | 0.03 | 92 | 1026.6 |
| 20260831220004 | 11 | 315 | 3.2 | 6.4 | 0.00 | 0.03 | 0.03 | 93 | 1026.6 |
| 20260831215504 | 11 | 322 | 3.2 | 6.4 | 0.00 | 0.03 | 0.03 | 93 | 1026.6 |
| 20260831215008 | 11 | 319 | 3.2 | 6.4 | 0.00 | 0.03 | 0.03 | 94 | 1026.6 |
| 20260831214503 | 10 | 307 | 3.2 | 8.0 | 0.00 | 0.03 | 0.03 | 95 | 1026.6 |
| 20260831214003 | 10 | 296 | 3.2 | 8.0 | 0.00 | 0.03 | 0.03 | 95 | 1026.5 |
| 20260831213503 | 10 | 306 | 1.6 | 4.8 | 0.00 | 0.03 | 0.03 | 95 | 1026.4 |
| 20260831213004 | 10 | 317 | 3.2 | 4.8 | 0.00 | 0.03 | 0.03 | 95 | 1026.4 |
| 20260831212502 | 10 | 285 | 1.6 | 4.8 | 0.00 | 0.03 | 0.03 | 95 | 1026.5 |
| 20260831212001 | 10 | 289 | 0.0 | 1.6 | 0.00 | 0.03 | 0.03 | 95 | 1026.4 |
| 20260831211501 | 9 | 289 | 0.0 | 4.8 | 0.00 | 0.03 | 0.03 | 95 | 1026.4 |
| 20260831211003 | 9 | 300 | 1.6 | 4.8 | 0.00 | 0.03 | 0.03 | 95 | 1026.4 |
| 20260831210501 | 9 | 283 | 1.6 | 4.8 | 0.00 | 0.03 | 0.03 | 95 | 1026.3 |
| 20260831205600 | 9 | 275 | 1.6 | 4.8 | 0.00 | 0.03 | 0.03 | 95 | 1026.2 |
| 20260831205059 | 9 | 271 | 1.6 | 6.4 | 0.00 | 0.03 | 0.03 | 95 | 1026.2 |
| 20260831204601 | 9 | 263 | 1.6 | 6.4 | 0.00 | 0.03 | 0.03 | 95 | 1026.2 |
| 20260831204059 | 9 | 287 | 3.2 | 4.8 | 0.00 | 0.03 | 0.03 | 95 | 1026.2 |
| 20260831203558 | 9 | 277 | 1.6 | 6.4 | 0.00 | 0.03 | 0.03 | 94 | 1026.2 |
| 20260831203105 | 10 | 275 | 1.6 | 8.0 | 0.00 | 0.03 | 0.03 | 94 | 1026.1 |
| 20260831202558 | 10 | 259 | 3.2 | 8.0 | 0.00 | 0.03 | 0.03 | 94 | 1026.1 |
| 20260831202055 | 10 | 289 | 3.2 | 8.0 | 0.00 | 0.03 | 0.03 | 95 | 1026.0 |
| 20260831201554 | 10 | 294 | 1.6 | 6.4 | 0.00 | 0.03 | 0.03 | 94 | 1026.0 |
| 20260831201054 | 10 | 317 | 0.0 | 0.0 | 0.00 | 0.03 | 0.03 | 94 | 1026.0 |
| 20260831200553 | 10 | 317 | 0.0 | 0.0 | 0.00 | 0.03 | 0.03 | 94 | 1026.0 |
| 20260831200056 | 10 | 317 | 0.0 | 0.0 | 0.00 | 0.03 | 0.03 | 94 | 1026.0 |
| 20260831195550 | 10 | 317 | 0.0 | 0.0 | 0.00 | 0.03 | 0.03 | 94 | 1025.9 |
| 20260831195051 | 10 | 317 | 0.0 | 0.0 | 0.00 | 0.03 | 0.03 | 94 | 1026.0 |
| 20260831194553 | 10 | 317 | 0.0 | 0.0 | 0.00 | 0.03 | 0.03 | 94 | 1025.9 |
| 20260831194049 | 10 | 317 | 0.0 | 0.0 | 0.00 | 0.03 | 0.03 | 94 | 1025.8 |
| 20260831193547 | 11 | 317 | 0.0 | 0.0 | 0.00 | 0.03 | 0.03 | 93 | 1025.8 |
| 20260831193047 | 11 | 317 | 0.0 | 0.0 | 0.00 | 0.03 | 0.03 | 93 | 1025.7 |
| 20260831192545 | 11 | 317 | 0.0 | 0.0 | 0.00 | 0.03 | 0.03 | 94 | 1025.7 |
| 20260831192048 | 11 | 317 | 0.0 | 0.0 | 0.00 | 0.03 | 0.03 | 94 | 1025.7 |
| 20260831191544 | 11 | 317 | 0.0 | 0.0 | 0.00 | 0.03 | 0.03 | 94 | 1025.7 |
| 20260831191044 | 11 | 317 | 0.0 | 1.6 | 0.00 | 0.03 | 0.03 | 94 | 1025.7 |
| 20260831190544 | 11 | 315 | 0.0 | 6.4 | 0.00 | 0.03 | 0.03 | 94 | 1025.7 |
| 20260831185543 | 11 | 322 | 0.0 | 4.8 | 0.00 | 0.03 | 0.03 | 94 | 1025.7 |
| 20260831185043 | 11 | 321 | 0.0 | 6.4 | 0.00 | 0.03 | 0.03 | 94 | 1025.7 |
| 20260831184542 | 11 | 316 | 1.6 | 6.4 | 0.00 | 0.03 | 0.03 | 94 | 1025.7 |
| 20260831184042 | 11 | 305 | 1.6 | 6.4 | 0.00 | 0.03 | 0.03 | 94 | 1025.8 |
| 20260831183542 | 11 | 298 | 1.6 | 4.8 | 0.00 | 0.03 | 0.03 | 94 | 1025.7 |
| 20260831183042 | 11 | 319 | 0.0 | 4.8 | 0.00 | 0.03 | 0.03 | 93 | 1025.8 |
| 20260831182541 | 11 | 350 | 0.0 | 3.2 | 0.00 | 0.03 | 0.03 | 93 | 1025.8 |
| 20260831182041 | 11 | 323 | 0.0 | 3.2 | 0.00 | 0.03 | 0.03 | 94 | 1025.7 |
| 20260831181541 | 11 | 323 | 0.0 | 3.2 | 0.00 | 0.03 | 0.03 | 93 | 1025.8 |
| 20260831181040 | 11 | 290 | 0.0 | 3.2 | 0.00 | 0.03 | 0.03 | 93 | 1025.8 |
| 20260831180049 | 11 | 290 | 0.0 | 3.2 | 0.00 | 0.03 | 0.03 | 93 | 1025.8 |
| 20260831175547 | 11 | 290 | 0.0 | 3.2 | 0.00 | 0.05 | 0.03 | 93 | 1025.8 |
| 20260831175046 | 11 | 290 | 0.0 | 3.2 | 0.03 | 0.05 | 0.03 | 93 | 1025.8 |
| 20260831174547 | 11 | 286 | 0.0 | 4.8 | 0.03 | 0.05 | 0.03 | 93 | 1025.8 |
| 20260831174046 | 11 | 286 | 1.6 | 4.8 | 0.03 | 0.05 | 0.03 | 93 | 1025.8 |
| 20260831173548 | 11 | 288 | 0.0 | 3.2 | 0.03 | 0.05 | 0.03 | 92 | 1025.8 |
| 20260831173046 | 12 | 288 | 0.0 | 4.8 | 0.03 | 0.05 | 0.03 | 92 | 1025.8 |
| 20260831172544 | 12 | 288 | 0.0 | 4.8 | 0.03 | 0.05 | 0.03 | 92 | 1025.8 |
| 20260831172047 | 12 | 287 | 1.6 | 4.8 | 0.03 | 0.05 | 0.03 | 92 | 1025.9 |
| 20260831171543 | 12 | 287 | 0.0 | 4.8 | 0.03 | 0.05 | 0.03 | 92 | 1025.9 |
| 20260831171042 | 12 | 287 | 0.0 | 3.2 | 0.03 | 0.05 | 0.03 | 92 | 1025.9 |
| 20260831170541 | 12 | 287 | 0.0 | 4.8 | 0.03 | 0.05 | 0.03 | 92 | 1025.9 |
| 20260831170040 | 12 | 287 | 0.0 | 4.8 | 0.03 | 0.05 | 0.03 | 92 | 1025.9 |
| 20260831165540 | 12 | 305 | 0.0 | 0.0 | 0.03 | 0.05 | 0.03 | 92 | 1025.9 |
| 20260831165038 | 12 | 298 | 0.0 | 0.0 | 0.00 | 0.03 | 0.00 | 91 | 1026.0 |
| 20260831164554 | 12 | 285 | 0.0 | 3.2 | 0.00 | 0.03 | 0.00 | 91 | 1026.0 |
| 20260831164039 | 12 | 285 | 0.0 | 3.2 | 0.00 | 0.03 | 0.00 | 91 | 1026.1 |
| 20260831163536 | 12 | 289 | 0.0 | 4.8 | 0.00 | 0.03 | 0.00 | 91 | 1026.3 |
| 20260831163040 | 12 | 298 | 1.6 | 4.8 | 0.00 | 0.03 | 0.00 | 91 | 1026.3 |
| 20260831162534 | 13 | 300 | 1.6 | 4.8 | 0.00 | 0.03 | 0.00 | 91 | 1026.4 |
| 20260831162035 | 13 | 288 | 0.0 | 3.2 | 0.00 | 0.03 | 0.00 | 91 | 1026.6 |
| 20260831161534 | 13 | 291 | 0.0 | 3.2 | 0.00 | 0.03 | 0.00 | 91 | 1026.6 |
| 20260831161032 | 13 | 302 | 0.0 | 3.2 | 0.00 | 0.03 | 0.00 | 92 | 1026.6 |
| 20260831160532 | 13 | 301 | 0.0 | 6.4 | 0.00 | 0.03 | 0.00 | 92 | 1026.7 |
| 20260831160031 | 13 | 303 | 3.2 | 6.4 | 0.00 | 0.03 | 0.00 | 92 | 1026.8 |
| 20260831155530 | 13 | 304 | 3.2 | 4.8 | 0.00 | 0.03 | 0.00 | 93 | 1026.8 |
| 20260831155029 | 13 | 310 | 3.2 | 4.8 | 0.00 | 0.03 | 0.00 | 93 | 1026.8 |
| 20260831154530 | 12 | 325 | 1.6 | 6.4 | 0.00 | 0.03 | 0.00 | 93 | 1026.9 |
| 20260831154028 | 12 | 327 | 1.6 | 6.4 | 0.00 | 0.03 | 0.00 | 93 | 1027.0 |
| 20260831153525 | 12 | 332 | 0.0 | 4.8 | 0.00 | 0.03 | 0.00 | 93 | 1027.1 |
| 20260831153027 | 12 | 326 | 1.6 | 6.4 | 0.00 | 0.03 | 0.00 | 93 | 1027.1 |
| 20260831152524 | 12 | 306 | 1.6 | 6.4 | 0.00 | 0.03 | 0.00 | 94 | 1027.2 |
| 20260831152024 | 12 | 319 | 1.6 | 6.4 | 0.00 | 0.03 | 0.00 | 94 | 1027.3 |
| 20260831151524 | 12 | 317 | 3.2 | 6.4 | 0.00 | 0.03 | 0.00 | 94 | 1027.3 |
| 20260831151023 | 12 | 331 | 1.6 | 6.4 | 0.00 | 0.03 | 0.00 | 94 | 1027.4 |
| 20260831150524 | 12 | 323 | 3.2 | 6.4 | 0.00 | 0.03 | 0.00 | 94 | 1027.4 |
| 20260831150021 | 12 | 280 | 0.0 | 3.2 | 0.00 | 0.03 | 0.00 | 94 | 1027.4 |
| 20260831145520 | 12 | 280 | 0.0 | 4.8 | 0.00 | 0.03 | 0.00 | 94 | 1027.5 |
| 20260831145021 | 12 | 303 | 0.0 | 6.4 | 0.00 | 0.03 | 0.00 | 94 | 1027.5 |
| 20260831144520 | 12 | 280 | 0.0 | 4.8 | 0.00 | 0.03 | 0.00 | 94 | 1027.5 |
| 20260831144021 | 12 | 284 | 1.6 | 6.4 | 0.00 | 0.03 | 0.00 | 94 | 1027.6 |
| 20260831143519 | 12 | 278 | 3.2 | 6.4 | 0.00 | 0.03 | 0.00 | 94 | 1027.7 |
| 20260831143021 | 12 | 261 | 1.6 | 6.4 | 0.00 | 0.03 | 0.00 | 94 | 1027.6 |
| 20260831142518 | 12 | 272 | 1.6 | 6.4 | 0.00 | 0.03 | 0.00 | 94 | 1027.7 |
| 20260831142017 | 12 | 292 | 0.0 | 4.8 | 0.00 | 0.03 | 0.00 | 94 | 1027.7 |
| 20260831141517 | 12 | 288 | 0.0 | 4.8 | 0.00 | 0.03 | 0.00 | 94 | 1027.6 |
| 20260831141017 | 12 | 294 | 0.0 | 0.0 | 0.00 | 0.03 | 0.00 | 94 | 1027.6 |
| 20260831140516 | 12 | 294 | 0.0 | 0.0 | 0.00 | 0.03 | 0.00 | 94 | 1027.7 |
| 20260831140014 | 12 | 294 | 0.0 | 0.0 | 0.00 | 0.03 | 0.00 | 94 | 1027.7 |
| 20260831135514 | 12 | 294 | 0.0 | 0.0 | 0.00 | 0.03 | 0.03 | 94 | 1027.7 |
| 20260831135014 | 12 | 294 | 0.0 | 0.0 | 0.00 | 0.03 | 0.03 | 93 | 1027.8 |
| 20260831134513 | 12 | 294 | 0.0 | 0.0 | 0.00 | 0.03 | 0.03 | 93 | 1027.8 |
| 20260831134012 | 12 | 294 | 0.0 | 0.0 | 0.00 | 0.03 | 0.03 | 93 | 1027.8 |
| 20260831133516 | 12 | 294 | 0.0 | 0.0 | 0.00 | 0.03 | 0.03 | 93 | 1027.9 |
| 20260831133012 | 12 | 294 | 0.0 | 0.0 | 0.00 | 0.03 | 0.03 | 93 | 1027.9 |
| 20260831132512 | 12 | 294 | 0.0 | 0.0 | 0.00 | 0.03 | 0.03 | 93 | 1028.0 |
| 20260831132012 | 12 | 294 | 0.0 | 0.0 | 0.00 | 0.03 | 0.03 | 93 | 1028.0 |
| 20260831131512 | 13 | 294 | 0.0 | 0.0 | 0.00 | 0.03 | 0.03 | 92 | 1028.1 |
| 20260831131012 | 13 | 294 | 0.0 | 0.0 | 0.00 | 0.03 | 0.03 | 92 | 1028.2 |
| 20260831130511 | 13 | 294 | 0.0 | 0.0 | 0.00 | 0.03 | 0.03 | 92 | 1028.2 |
| 20260831130015 | 13 | 292 | 0.0 | 0.0 | 0.00 | 0.03 | 0.03 | 92 | 1028.2 |
| 20260831125511 | 13 | 292 | 0.0 | 0.0 | 0.00 | 0.03 | 0.03 | 92 | 1028.3 |
| 20260831125012 | 13 | 292 | 0.0 | 0.0 | 0.00 | 0.03 | 0.03 | 92 | 1028.3 |
| 20260831124510 | 13 | 292 | 0.0 | 0.0 | 0.00 | 0.03 | 0.03 | 92 | 1028.3 |
| 20260831124010 | 13 | 292 | 0.0 | 0.0 | 0.00 | 0.03 | 0.03 | 92 | 1028.3 |
| 20260831123514 | 13 | 292 | 0.0 | 0.0 | 0.00 | 0.03 | 0.03 | 92 | 1028.3 |
| 20260831123010 | 13 | 292 | 0.0 | 0.0 | 0.00 | 0.03 | 0.03 | 92 | 1028.4 |
| 20260831122510 | 13 | 292 | 0.0 | 0.0 | 0.00 | 0.03 | 0.03 | 92 | 1028.4 |
| 20260831122010 | 13 | 281 | 0.0 | 0.0 | 0.00 | 0.03 | 0.03 | 91 | 1028.5 |
| 20260831121510 | 14 | 289 | 0.0 | 0.0 | 0.00 | 0.03 | 0.03 | 91 | 1028.5 |
| 20260831121010 | 14 | 304 | 0.0 | 0.0 | 0.00 | 0.03 | 0.03 | 91 | 1028.6 |
| 20260831120510 | 14 | 289 | 0.0 | 0.0 | 0.00 | 0.03 | 0.03 | 91 | 1028.6 |
| 20260831120015 | 14 | 289 | 0.0 | 6.4 | 0.00 | 0.03 | 0.03 | 91 | 1028.6 |
| 20260831115508 | 14 | 317 | 1.6 | 6.4 | 0.00 | 0.03 | 0.03 | 91 | 1028.7 |
| 20260831115009 | 14 | 302 | 0.0 | 4.8 | 0.00 | 0.03 | 0.03 | 90 | 1028.8 |
| 20260831114523 | 14 | 232 | 0.0 | 4.8 | 0.00 | 0.03 | 0.03 | 90 | 1028.8 |
| 20260831114008 | 14 | 245 | 0.0 | 4.8 | 0.00 | 0.03 | 0.03 | 90 | 1028.8 |
| 20260831113508 | 15 | 19 | 0.0 | 3.2 | 0.00 | 0.03 | 0.03 | 90 | 1028.8 |
| 20260831113008 | 15 | 292 | 0.0 | 8.0 | 0.00 | 0.03 | 0.03 | 90 | 1028.9 |
| 20260831112508 | 15 | 277 | 0.0 | 8.0 | 0.00 | 0.03 | 0.03 | 89 | 1028.9 |
| 20260831112007 | 15 | 313 | 1.6 | 8.0 | 0.00 | 0.03 | 0.03 | 89 | 1028.9 |
| 20260831111506 | 15 | 258 | 0.0 | 6.4 | 0.00 | 0.03 | 0.03 | 89 | 1028.9 |
| 20260831111011 | 15 | 343 | 1.6 | 6.4 | 0.00 | 0.03 | 0.03 | 89 | 1028.8 |
| 20260831110511 | 15 | 309 | 0.0 | 6.4 | 0.00 | 0.03 | 0.03 | 89 | 1028.8 |
| 20260831110006 | 15 | 355 | 1.6 | 9.7 | 0.00 | 0.03 | 0.03 | 89 | 1028.8 |
| 20260831105506 | 15 | 263 | 1.6 | 8.0 | 0.00 | 0.03 | 0.03 | 89 | 1028.8 |
| 20260831105006 | 15 | 286 | 3.2 | 8.0 | 0.00 | 0.03 | 0.03 | 88 | 1028.8 |
| 20260831104506 | 15 | 11 | 0.0 | 6.4 | 0.00 | 0.03 | 0.03 | 88 | 1028.8 |
| 20260831104005 | 15 | 336 | 1.6 | 6.4 | 0.00 | 0.03 | 0.03 | 88 | 1028.8 |
| 20260831103507 | 15 | 284 | 0.0 | 8.0 | 0.00 | 0.03 | 0.03 | 87 | 1028.8 |
| 20260831103005 | 15 | 297 | 1.6 | 8.0 | 0.00 | 0.03 | 0.03 | 87 | 1028.8 |
| 20260831102505 | 15 | 288 | 1.6 | 6.4 | 0.00 | 0.03 | 0.03 | 87 | 1028.8 |
| 20260831102005 | 15 | 254 | 1.6 | 6.4 | 0.00 | 0.03 | 0.03 | 87 | 1028.8 |
| 20260831101505 | 15 | 267 | 0.0 | 4.8 | 0.00 | 0.03 | 0.03 | 86 | 1028.8 |
| 20260831101005 | 15 | 275 | 1.6 | 8.0 | 0.00 | 0.03 | 0.03 | 86 | 1028.8 |
| 20260831100504 | 15 | 317 | 1.6 | 8.0 | 0.00 | 0.03 | 0.03 | 86 | 1028.9 |
| 20260831100004 | 15 | 327 | 1.6 | 6.4 | 0.00 | 0.03 | 0.03 | 86 | 1028.9 |
| 20260831095503 | 15 | 304 | 1.6 | 4.8 | 0.00 | 0.03 | 0.03 | 86 | 1028.9 |
| 20260831095003 | 15 | 271 | 1.6 | 6.4 | 0.00 | 0.03 | 0.03 | 86 | 1028.8 |
| 20260831094504 | 15 | 325 | 1.6 | 6.4 | 0.00 | 0.03 | 0.03 | 86 | 1028.9 |
| 20260831094003 | 15 | 279 | 0.0 | 6.4 | 0.00 | 0.03 | 0.03 | 85 | 1028.9 |
| 20260831093506 | 15 | 282 | 1.6 | 6.4 | 0.00 | 0.03 | 0.03 | 86 | 1028.9 |
| 20260831093004 | 15 | 340 | 0.0 | 8.0 | 0.00 | 0.03 | 0.03 | 86 | 1028.9 |
| 20260831092504 | 15 | 272 | 1.6 | 8.0 | 0.00 | 0.03 | 0.03 | 85 | 1028.9 |
| 20260831092002 | 15 | 347 | 0.0 | 4.8 | 0.00 | 0.03 | 0.03 | 85 | 1028.9 |
| 20260831091507 | 15 | 286 | 0.0 | 11.3 | 0.00 | 0.03 | 0.03 | 85 | 1028.9 |
| 20260831091002 | 15 | 311 | 3.2 | 11.3 | 0.00 | 0.03 | 0.03 | 85 | 1028.9 |
| 20260831090502 | 15 | 290 | 1.6 | 6.4 | 0.00 | 0.03 | 0.03 | 85 | 1028.8 |
| 20260831090002 | 16 | 304 | 0.0 | 9.7 | 0.00 | 0.03 | 0.03 | 85 | 1028.8 |
| 20260831085501 | 16 | 281 | 1.6 | 9.7 | 0.00 | 0.03 | 0.03 | 84 | 1028.8 |
| 20260831085001 | 16 | 296 | 1.6 | 6.4 | 0.00 | 0.03 | 0.03 | 84 | 1028.7 |
| 20260831084501 | 16 | 285 | 0.0 | 6.4 | 0.00 | 0.03 | 0.03 | 84 | 1028.6 |
| 20260831084002 | 16 | 13 | 1.6 | 6.4 | 0.00 | 0.03 | 0.03 | 84 | 1028.6 |
| 20260831083502 | 16 | 339 | 0.0 | 6.4 | 0.00 | 0.03 | 0.03 | 83 | 1028.6 |
| 20260831083110 | 16 | 327 | 1.6 | 4.8 | 0.00 | 0.03 | 0.03 | 83 | 1028.5 |
| 20260831082600 | 16 | 333 | 0.0 | 4.8 | 0.00 | 0.03 | 0.03 | 83 | 1028.5 |
| 20260831082502 | 16 | 333 | 1.6 | 4.8 | 0.00 | 0.03 | 0.03 | 83 | 1028.5 |
| 20260831082002 | 16 | 344 | 0.0 | 4.8 | 0.00 | 0.03 | 0.03 | 82 | 1028.5 |
| 20260831081607 | 16 | 314 | 0.0 | 4.8 | 0.00 | 0.03 | 0.03 | 82 | 1028.5 |
| 20260831081101 | 16 | 355 | 0.0 | 6.4 | 0.00 | 0.03 | 0.03 | 82 | 1028.5 |
| 20260831080604 | 16 | 321 | 1.6 | 8.0 | 0.00 | 0.03 | 0.03 | 81 | 1028.5 |
| 20260831080100 | 16 | 66 | 0.0 | 8.0 | 0.00 | 0.03 | 0.03 | 80 | 1028.6 |
| 20260831075600 | 16 | 325 | 0.0 | 6.4 | 0.00 | 0.03 | 0.03 | 79 | 1028.6 |
| 20260831075100 | 16 | 332 | 0.0 | 6.4 | 0.00 | 0.03 | 0.03 | 78 | 1028.5 |
| 20260831074606 | 16 | 64 | 0.0 | 3.2 | 0.00 | 0.03 | 0.03 | 77 | 1028.5 |
| 20260831074102 | 17 | 341 | 0.0 | 4.8 | 0.00 | 0.03 | 0.03 | 76 | 1028.5 |
| 20260831073559 | 17 | 313 | 0.0 | 4.8 | 0.00 | 0.03 | 0.03 | 75 | 1028.5 |
| 20260831073100 | 17 | 309 | 0.0 | 4.8 | 0.00 | 0.03 | 0.03 | 74 | 1028.4 |
| 20260831072559 | 17 | 212 | 0.0 | 6.4 | 0.00 | 0.03 | 0.03 | 73 | 1028.4 |
| 20260831072058 | 17 | 337 | 1.6 | 6.4 | 0.00 | 0.03 | 0.03 | 72 | 1028.4 |
| 20260831071559 | 18 | 293 | 0.0 | 3.2 | 0.00 | 0.03 | 0.03 | 72 | 1028.3 |
| 20260831071058 | 18 | 42 | 0.0 | 1.6 | 0.00 | 0.03 | 0.03 | 71 | 1028.3 |
| 20260831070558 | 18 | 42 | 0.0 | 4.8 | 0.00 | 0.03 | 0.03 | 70 | 1028.2 |
| 20260831065557 | 18 | 87 | 0.0 | 4.8 | 0.00 | 0.03 | 0.03 | 68 | 1028.3 |
| 20260831065057 | 18 | 76 | 0.0 | 4.8 | 0.00 | 0.03 | 0.03 | 66 | 1028.3 |
| 20260831064558 | 18 | 59 | 0.0 | 8.0 | 0.00 | 0.03 | 0.03 | 65 | 1028.2 |
| 20260831064059 | 18 | 30 | 1.6 | 6.4 | 0.00 | 0.03 | 0.03 | 63 | 1028.2 |
| 20260831063557 | 19 | 360 | 0.0 | 12.9 | 0.00 | 0.03 | 0.03 | 62 | 1028.1 |
| 20260831063057 | 19 | 82 | 1.6 | 12.9 | 0.00 | 0.03 | 0.03 | 60 | 1028.2 |
| 20260831062557 | 19 | 60 | 0.0 | 6.4 | 0.00 | 0.03 | 0.03 | 59 | 1028.1 |
| 20260831062058 | 19 | 123 | 1.6 | 12.9 | 0.00 | 0.03 | 0.03 | 58 | 1028.0 |
| 20260831061558 | 19 | 266 | 4.8 | 12.9 | 0.00 | 0.03 | 0.03 | 57 | 1028.0 |
| 20260831061056 | 19 | 89 | 0.0 | 6.4 | 0.00 | 0.03 | 0.03 | 63 | 1028.0 |
| 20260831060555 | 19 | 24 | 1.6 | 6.4 | 0.00 | 0.03 | 0.03 | 62 | 1028.0 |
| 20260831060055 | 20 | 65 | 1.6 | 6.4 | 0.00 | 0.03 | 0.03 | 61 | 1028.0 |
| 20260831055556 | 20 | 329 | 0.0 | 6.4 | 0.00 | 0.03 | 0.03 | 60 | 1028.0 |
| 20260831055059 | 20 | 328 | 1.6 | 8.0 | 0.00 | 0.03 | 0.03 | 58 | 1027.9 |
| 20260831054556 | 20 | 49 | 3.2 | 12.9 | 0.00 | 0.03 | 0.03 | 58 | 1027.9 |
| 20260831054056 | 20 | 67 | 1.6 | 6.4 | 0.00 | 0.03 | 0.03 | 57 | 1028.0 |
| 20260831053558 | 20 | 68 | 1.6 | 6.4 | 0.00 | 0.03 | 0.03 | 54 | 1027.9 |
| 20260831053055 | 20 | 94 | 1.6 | 14.5 | 0.00 | 0.03 | 0.03 | 53 | 1028.0 |
| 20260831052555 | 20 | 78 | 4.8 | 14.5 | 0.00 | 0.03 | 0.03 | 51 | 1028.0 |
| 20260831052052 | 21 | 90 | 3.2 | 11.3 | 0.00 | 0.03 | 0.03 | 52 | 1028.0 |
| 20260831051602 | 21 | 254 | 1.6 | 6.4 | 0.00 | 0.03 | 0.03 | 53 | 1027.9 |
| 20260831051052 | 21 | 38 | 3.2 | 9.7 | 0.00 | 0.03 | 0.03 | 52 | 1027.9 |
| 20260831050552 | 21 | 71 | 1.6 | 9.7 | 0.00 | 0.03 | 0.03 | 52 | 1027.9 |
| 20260831050052 | 21 | 99 | 1.6 | 9.7 | 0.00 | 0.03 | 0.03 | 52 | 1027.9 |
| 20260831045551 | 21 | 116 | 1.6 | 9.7 | 0.00 | 0.03 | 0.03 | 52 | 1027.9 |
| 20260831045054 | 21 | 82 | 3.2 | 12.9 | 0.00 | 0.03 | 0.03 | 51 | 1027.9 |
| 20260831044609 | 21 | 171 | 1.6 | 14.5 | 0.00 | 0.03 | 0.03 | 52 | 1027.9 |
| 20260831044049 | 21 | 311 | 1.6 | 14.5 | 0.00 | 0.03 | 0.03 | 53 | 1027.9 |
| 20260831043549 | 22 | 61 | 3.2 | 11.3 | 0.00 | 0.03 | 0.03 | 52 | 1027.9 |
| 20260831043049 | 22 | 53 | 3.2 | 8.0 | 0.00 | 0.03 | 0.03 | 52 | 1027.9 |
| 20260831042548 | 22 | 302 | 0.0 | 6.4 | 0.00 | 0.03 | 0.03 | 53 | 1028.0 |
| 20260831042047 | 22 | 79 | 1.6 | 6.4 | 0.00 | 0.03 | 0.03 | 52 | 1028.0 |
| 20260831041558 | 22 | 100 | 1.6 | 9.7 | 0.00 | 0.03 | 0.03 | 53 | 1028.0 |
| 20260831041047 | 22 | 123 | 3.2 | 9.7 | 0.00 | 0.03 | 0.03 | 53 | 1028.1 |
| 20260831040545 | 22 | 325 | 3.2 | 6.4 | 0.00 | 0.03 | 0.03 | 53 | 1028.1 |
| 20260831040044 | 22 | 83 | 0.0 | 4.8 | 0.00 | 0.03 | 0.03 | 55 | 1028.2 |
| 20260831035542 | 22 | 122 | 0.0 | 8.0 | 0.00 | 0.03 | 0.03 | 56 | 1028.2 |
| 20260831035042 | 22 | 294 | 1.6 | 12.9 | 0.00 | 0.03 | 0.03 | 53 | 1028.3 |
| 20260831034541 | 22 | 252 | 1.6 | 12.9 | 0.00 | 0.03 | 0.03 | 54 | 1028.3 |
| 20260831034041 | 22 | 322 | 1.6 | 9.7 | 0.00 | 0.03 | 0.03 | 54 | 1028.3 |
| 20260831033540 | 22 | 250 | 1.6 | 12.9 | 0.00 | 0.03 | 0.03 | 52 | 1028.4 |
| 20260831033041 | 22 | 275 | 4.8 | 12.9 | 0.00 | 0.03 | 0.03 | 52 | 1028.4 |
| 20260831032539 | 22 | 313 | 4.8 | 9.7 | 0.00 | 0.03 | 0.03 | 54 | 1028.5 |
| 20260831032038 | 21 | 190 | 1.6 | 9.7 | 0.00 | 0.03 | 0.03 | 53 | 1028.6 |
| 20260831031539 | 21 | 265 | 3.2 | 14.5 | 0.00 | 0.03 | 0.03 | 55 | 1028.6 |
| 20260831031036 | 22 | 298 | 6.4 | 12.9 | 0.00 | 0.03 | 0.03 | 53 | 1028.7 |
| 20260831030534 | 22 | 328 | 0.0 | 9.7 | 0.00 | 0.03 | 0.03 | 57 | 1028.7 |
| 20260831030033 | 22 | 322 | 3.2 | 9.7 | 0.00 | 0.03 | 0.03 | 56 | 1028.9 |
| 20260831025531 | 21 | 286 | 1.6 | 11.3 | 0.00 | 0.03 | 0.03 | 57 | 1029.0 |
| 20260831025031 | 21 | 293 | 1.6 | 17.7 | 0.00 | 0.03 | 0.03 | 57 | 1029.0 |
| 20260831024530 | 21 | 276 | 3.2 | 17.7 | 0.00 | 0.03 | 0.03 | 58 | 1029.2 |
| 20260831024027 | 21 | 265 | 1.6 | 11.3 | 0.00 | 0.03 | 0.03 | 59 | 1029.2 |
| 20260831023528 | 20 | 335 | 1.6 | 16.1 | 0.00 | 0.03 | 0.03 | 59 | 1029.4 |
| 20260831023027 | 20 | 265 | 6.4 | 16.1 | 0.00 | 0.03 | 0.03 | 59 | 1029.4 |
| 20260831022526 | 21 | 282 | 3.2 | 8.0 | 0.00 | 0.03 | 0.03 | 60 | 1029.5 |
| 20260831022026 | 21 | 5 | 1.6 | 6.4 | 0.00 | 0.03 | 0.03 | 60 | 1029.5 |